Regional Weather Roundup
Issued by NWS

Home | Current Version | Previous Version | Text Only | Print | Product List | Glossary Off
Versions: 1 2 3 4 5 6 7 8 9 10 11 12 13 14 15 16 17 18 19 20 21 22 23 24 25 26 27 28 29 30 31 32 33 34 35 36 37 38 39 40 41 42 43 44 45 46 47 48 49 50

258
ASUS45 KSLC 250410
RWRUT

UTAH REGIONAL WEATHER ROUNDUP
NATIONAL WEATHER SERVICE SALT LAKE CITY UT
900 PM MST SAT FEB 24 2018

UTZ001>011-023>025-250500-

NORTHERN UTAH

CITY           SKY/WX    TMP DP  RH WIND       PRES   REMARKS
BRIGHAM CITY   CLOUDY    26  21  81 S13       30.00R WCI  15
HILL AFB       LGT SNOW  21  19  93 S14       29.98R FOG     WCI   8
LOGAN          CLOUDY    23  17  78 NW3       29.96S
OGDEN          LGT SNOW  24  20  84 S13       29.99R FOG     WCI  12
SALT LAKE CITY CLOUDY    28  20  71 S9        30.00S WCI  19
WENDOVER       PTCLDY    31  17  56 W17       29.99R WCI  19
HEBER CITY     LGT SNOW  19  16  86 NW3       29.94R
WEST JORDAN    CLOUDY    22  21  95 S13       30.00S WCI  10

$$

UTZ011>015-024>027-250500-

CENTRAL/NORTHEAST UTAH

CITY           SKY/WX    TMP DP  RH WIND       PRES   REMARKS
PROVO AIRPORT  CLOUDY    23  20  88 CALM      30.02S
DELTA          CLOUDY    21  14  73 MISG      29.99R
PRICE          PTCLDY    18  11  74 N7        29.92S WCI   9
RICHFIELD      MOCLDY    28  18  64 S1G14     29.98R
VERNAL         MOCLDY    18  11  74 CALM      29.94S

$$

UTZ013>016-019>022-027-250500-

SOUTHERN UTAH

CITY           SKY/WX    TMP DP  RH WIND       PRES   REMARKS
BRYCE CANYON   CLOUDY    18   8  65 NW8       29.94S WCI   8
CEDAR CITY     MOCLDY    22  12  65 SW6       30.00R WCI  14
MILFORD        MOCLDY    26  13  57 S14       29.99R WCI  14
ST GEORGE      MOCLDY    39  22  50 SE5       30.09R
HANKSVILLE     PTCLDY    32  12  43 W8        29.98R WCI  25
KANAB          PTCLDY    34  12  40 NW18G24   30.08R WCI  23
BLANDING         N/A     29  13  50 W14       30.03R WCI  19

$$

REGIONAL REPORTS     COLORADO/ARIZONA

CITY           SKY/WX    TMP DP  RH WIND       PRES   REMARKS
CRAIG, CO      LGT SNOW  18  14  84 SW3       29.92R FOG
GRAND JUNCTION CLOUDY    30  16  56 CALM      29.96R
RIFLE, CO      CLOUDY    26  11  52 CALM      29.94S
MONTROSE, CO   CLOUDY    28  10  46 NE5       29.96S WCI  23
CORTEZ, CO     CLOUDY    27  10  49 E5        29.97R WCI  22
COLORADO CITY  CLOUDY    34  12  40 NW9       30.07S WCI  26
PAGE, AZ       CLOUDY    36  21  54 NW14G21   30.02R WCI  27
GRAND CANYON   MOCLDY    27  14  58 SW7       30.00R WCI  19
KINGMAN, AZ    PTCLDY    39  -2  17 SW9       30.06R WCI  33
FLAGSTAFF, AZ  PTCLDY    25  11  55 SW12      29.98F WCI  14

$$

REGIONAL REPORTS    NEVADA/IDAHO/WYOMING

CITY           SKY/WX    TMP DP  RH WIND       PRES   REMARKS
LAS VEGAS, NV  PTCLDY    47   9  21 N14       30.07R
ELY, NY        CLEAR     20  13  74 W8        29.98S WCI  10
ELKO, NV       CLOUDY    22  12  65 NW7       30.05R WCI  13
POCATELLO, ID  FLURRIES  26  20  77 S14       29.91R WCI  14
BURLEY, ID     LGT SNOW  25  23  92 W17G31    29.92R VSB 1   WCI  12
FORT BRIDGER,  MOCLDY    15   9  76 W14       29.86  WCI   0
EVANSTON, WY   PTCLDY    12   9  87 SW17      29.84S WCI  -5
ROCK SPRINGS,  LGT SNOW  15  11  83 S9        29.84S FOG     WCI   3

$$




USA.gov is the U.S. government's official web portal to all federal, state and local government web resources and services.